Weather Roundup
Issued by NWS Springfield, MO

Home | Current Version | Previous Version | Text Only | Print | Product List | Glossary On
Versions: 1 2 3 4 5 6 7 8 9 10 11 12 13 14 15 16 17 18 19 20 21 22 23 24 25 26 27 28 29 30 31 32 33 34 35 36 37 38 39 40 41 42 43 44 45 46 47 48 49 50
000
NZUS99 KSGF 271707
HRRSGF

HOURLY WEATHER
NATIONAL WEATHER SERVICE SPRINGFIELD MO
1200 PM CDT FRI MAR 27 2015

......SGF CWA......

CITY           SKY/WX    TMP DP  RH WIND       PRES   REMARKS
SPRINGFIELD    CLOUDY    39  30  70 N13       30.20R WCI  31
JOPLIN         PTSUNNY   43  28  55 N15       30.25S
WEST PLAINS    CLOUDY    40  30  67 MISG      30.16S
ROLLA          CLOUDY    36  22  56 MISG      30.17S
OSAGE BEACH    CLOUDY    39  23  52 NW8       30.21S WCI  34
BRANSON        CLOUDY    39  36  87 NW12      30.19R WCI  32

......SURROUNDING SGF CWA......

CITY           SKY/WX    TMP DP  RH WIND       PRES   REMARKS
CHANUTE        PTSUNNY   43  27  53 N10       30.27S
PARSONS        PTSUNNY   44  27  51 N15       30.28S
COFFEYVILLE    MOSUNNY   46  28  49 N15       30.26F
EMPORIA        MOSUNNY   43  25  49 N12G21    30.26F
GROVE OK       MOSUNNY   48  32  53 N10G16    30.24F
ROGERS AR      CLOUDY    45  31  58 N15G21    30.20S
SILOAM SPRINGS PTSUNNY   46  30  53 N13G21    30.22S
HARRISON AR    CLOUDY    40  33  76 N15G22    30.17R WCI  32
NEAR YELLVILLE CLOUDY    43  32  65 N10G20    30.18R

......KANSAS AND MISSOURI......

CITY           SKY/WX    TMP DP  RH WIND       PRES   REMARKS
KANSAS CTY INT MOSUNNY   39  21  48 N13       30.26F WCI  31
DOWNTOWN KC    MOSUNNY   40  20  44 N9G17     30.27F WCI  34
COLUMBIA       PTSUNNY   38  22  52 N17       30.21F WCI  28
SEDALIA        MOSUNNY   39  25  57 NW9       30.23F WCI  33
ST JOSEPH      SUNNY     37  19  48 N12       30.29F WCI  29
ST LOUIS       FLURRIES  38  23  55 N13       30.19S WCI  30
SPIRIT OF STL  CLOUDY    37  21  52 N8        30.20R WCI  31
KIRKSVILLE     MOSUNNY   37  15  40 NW14      30.22F WCI  28
WICHITA        PTSUNNY   43  27  53 VRB5      30.28S
TOPEKA         SUNNY     41  24  51 N13       30.29F
OLATHE         MOSUNNY   38  23  55 N10       30.25F WCI  31

......TENNESSEE......

CITY           SKY/WX    TMP DP  RH WIND       PRES   REMARKS
MEMPHIS        CLOUDY    48  38  68 NW13      30.11S
NASHVILLE      PTSUNNY   49  30  48 N12       30.02R

......ARKANSAS.......

CITY           SKY/WX    TMP DP  RH WIND       PRES   REMARKS
FAYETTEVILLE   PTSUNNY   45  36  70 N10       30.19S
FT SMITH       PTSUNNY   51  35  54 N22G29    30.20R
LITTLE ROCK    CLOUDY    52  33  48 N5        30.15S

......OKLAHOMA.......

CITY           SKY/WX    TMP DP  RH WIND       PRES   REMARKS
TULSA          PTSUNNY   48  34  58 N20       30.24S
PONCA CITY     MOSUNNY   47  30  51 NE12G21   30.27S
MCALESTER      PTSUNNY   49  38  65 N16G26    30.22R
OKLAHOMA CITY  CLOUDY    47  37  68 N13       30.25R

......IOWA............

CITY           SKY/WX    TMP DP  RH WIND       PRES   REMARKS
DES MOINES     MOSUNNY   36   8  31 VRB7      30.27S WCI  30
QUAD CITIES    SUNNY     32   8  36 NE14      30.23S WCI  22

......ILLINOIS........

CITY           SKY/WX    TMP DP  RH WIND       PRES   REMARKS
QUINCY         CLOUDY    36  23  59 NE9       30.21S WCI  29
CHICAGO        MOSUNNY   27   9  46 N15       30.16F WCI  15



USA.gov is the U.S. government's official web portal to all federal, state and local government web resources and services.